| time (UTC) | temp F | wind direction | speed knots | gust knots | rain 1hr in | rain 24hr in | rain mn in | humidity % | barometer mb |
| 20260503194638 | 75 | 21 | 3.5 | 5.2 | 0.00 | 0.00 | 0.00 | 55 | 1015.6 |
| 20260503194134 | 74 | 57 | 1.7 | 2.6 | 0.00 | 0.00 | 0.00 | 57 | 1015.6 |
| 20260503193631 | 74 | 12 | 3.5 | 4.3 | 0.00 | 0.00 | 0.00 | 55 | 1015.8 |
| 20260503193126 | 73 | 22 | 3.5 | 4.3 | 0.00 | 0.00 | 0.00 | 57 | 1015.8 |
| 20260503192622 | 74 | 337 | 5.2 | 6.1 | 0.00 | 0.00 | 0.00 | 55 | 1016.0 |
| 20260503192118 | 74 | 236 | 2.6 | 2.6 | 0.00 | 0.00 | 0.00 | 54 | 1016.1 |
| 20260503191615 | 74 | 355 | 2.6 | 5.2 | 0.00 | 0.00 | 0.00 | 55 | 1016.2 |
| 20260503191112 | 73 | 355 | 6.1 | 7.0 | 0.00 | 0.00 | 0.00 | 56 | 1016.0 |
| 20260503190609 | 73 | 40 | 2.6 | 2.6 | 0.00 | 0.00 | 0.00 | 54 | 1016.2 |
| 20260503190106 | 72 | 316 | 3.5 | 4.3 | 0.00 | 0.00 | 0.00 | 56 | 1016.2 |
| 20260503185603 | 72 | 0 | 5.2 | 5.2 | 0.00 | 0.00 | 0.00 | 58 | 1016.1 |
| 20260503185102 | 73 | 16 | 3.5 | 4.3 | 0.00 | 0.00 | 0.00 | 58 | 1016.3 |
| 20260503184558 | 72 | 290 | 2.6 | 2.6 | 0.00 | 0.00 | 0.00 | 58 | 1016.5 |
| 20260503184055 | 71 | 332 | 4.3 | 5.2 | 0.00 | 0.00 | 0.00 | 58 | 1016.6 |
| 20260503183551 | 71 | 339 | 3.5 | 4.3 | 0.00 | 0.00 | 0.00 | 60 | 1016.5 |
| 20260503183049 | 70 | 252 | 4.3 | 5.2 | 0.00 | 0.00 | 0.00 | 61 | 1016.5 |
| 20260503182547 | 70 | 312 | 2.6 | 2.6 | 0.00 | 0.00 | 0.00 | 61 | 1016.6 |
| 20260503182045 | 71 | 321 | 3.5 | 4.3 | 0.00 | 0.00 | 0.00 | 61 | 1016.7 |
| 20260503181541 | 70 | 179 | 0.9 | 1.7 | 0.00 | 0.00 | 0.00 | 62 | 1016.6 |
| 20260503181038 | 71 | 42 | 0.0 | 0.9 | 0.00 | 0.00 | 0.00 | 60 | 1016.5 |
| 20260503180535 | 70 | 70 | 0.0 | 0.9 | 0.00 | 0.00 | 0.00 | 62 | 1016.9 |
| 20260503180032 | 70 | 14 | 4.3 | 5.2 | 0.00 | 0.00 | 0.00 | 63 | 1016.6 |
| 20260503175530 | 69 | 64 | 1.7 | 2.6 | 0.00 | 0.00 | 0.00 | 65 | 1016.9 |
| 20260503175027 | 69 | 356 | 4.3 | 5.2 | 0.00 | 0.00 | 0.00 | 63 | 1017.1 |
| 20260503174524 | 68 | 285 | 2.6 | 2.6 | 0.00 | 0.00 | 0.00 | 63 | 1017.0 |
| 20260503174020 | 68 | 338 | 1.7 | 1.7 | 0.00 | 0.00 | 0.00 | 64 | 1016.8 |
| 20260503173515 | 67 | 350 | 2.6 | 5.2 | 0.00 | 0.00 | 0.00 | 67 | 1016.8 |
| 20260503173012 | 67 | 342 | 3.5 | 4.3 | 0.00 | 0.00 | 0.00 | 68 | 1017.1 |
| 20260503172510 | 67 | 302 | 2.6 | 4.3 | 0.00 | 0.00 | 0.00 | 66 | 1017.2 |
| 20260503172006 | 66 | 274 | 3.5 | 4.3 | 0.00 | 0.00 | 0.00 | 68 | 1017.2 |
| 20260503171503 | 66 | 350 | 2.6 | 4.3 | 0.00 | 0.00 | 0.00 | 69 | 1017.2 |
| 20260503171000 | 66 | 345 | 4.3 | 4.3 | 0.00 | 0.00 | 0.00 | 70 | 1017.0 |
| 20260503170456 | 65 | 344 | 1.7 | 2.6 | 0.00 | 0.00 | 0.00 | 69 | 1017.7 |
| 20260503150849 | 56 | 344 | 1.7 | 1.7 | 0.00 | 0.00 | 0.00 | 90 | 1017.4 |
| 20260503150345 | 56 | 4 | 1.7 | 1.7 | 0.00 | 0.00 | 0.00 | 92 | 1017.6 |
| 20260503140309 | 51 | 62 | 0.0 | 0.0 | 0.00 | 0.00 | 0.00 | 99 | 1017.1 |
| 20260503131239 | 50 | 51 | 0.0 | 0.0 | 0.00 | 0.00 | 0.00 | 99 | 1017.2 |
| 20260503130736 | 50 | 51 | 0.0 | 0.0 | 0.00 | 0.00 | 0.00 | 99 | 1017.2 |
| 20260503130233 | 50 | 45 | 0.0 | 0.0 | 0.00 | 0.00 | 0.00 | 99 | 1017.4 |
| 20260503120159 | 50 | 65 | 0.0 | 0.0 | 0.00 | 0.00 | 0.00 | 99 | 1017.2 |
| 20260503110627 | 51 | 63 | 0.0 | 0.0 | 0.00 | 0.00 | 0.00 | 99 | 1017.5 |
| 20260503110124 | 51 | 68 | 0.0 | 0.0 | 0.00 | 0.00 | 0.00 | 99 | 1017.7 |
| 20260503081440 | 55 | 11 | 0.0 | 0.0 | 0.00 | 0.00 | 0.00 | 92 | 1017.5 |
| 20260503080937 | 55 | 16 | 0.0 | 0.0 | 0.00 | 0.00 | 0.00 | 92 | 1017.7 |
| 20260503080433 | 55 | 16 | 0.0 | 0.0 | 0.00 | 0.00 | 0.00 | 92 | 1017.6 |
| 20260503072910 | 55 | 71 | 0.9 | 0.9 | 0.00 | 0.00 | 0.00 | 87 | 1017.6 |
| 20260503072407 | 55 | 66 | 0.9 | 0.9 | 0.00 | 0.00 | 0.00 | 87 | 1017.5 |
| 20260503071904 | 55 | 66 | 0.9 | 0.9 | 0.00 | 0.00 | 0.00 | 86 | 1017.5 |
| 20260503071401 | 55 | 66 | 0.9 | 0.9 | 0.00 | 0.00 | 0.00 | 86 | 1017.4 |
| 20260503070856 | 55 | 66 | 0.9 | 0.9 | 0.00 | 0.00 | 0.00 | 86 | 1017.6 |
| 20260503070355 | 55 | 66 | 0.9 | 0.9 | 0.00 | 0.00 | 0.00 | 86 | 1017.7 |
| 20260503060320 | 57 | 48 | 0.0 | 0.9 | 0.00 | 0.00 | 0.00 | 80 | 1017.4 |
| 20260503054808 | 57 | 65 | 0.9 | 0.9 | 0.00 | 0.00 | 0.00 | 85 | 1017.4 |
| 20260503054304 | 57 | 73 | 0.9 | 0.9 | 0.00 | 0.00 | 0.00 | 85 | 1017.6 |
| 20260503053802 | 57 | 64 | 0.0 | 0.0 | 0.00 | 0.00 | 0.00 | 84 | 1017.5 |
| 20260503053300 | 57 | 61 | 0.0 | 0.0 | 0.00 | 0.00 | 0.00 | 84 | 1017.5 |
| 20260503052756 | 58 | 65 | 0.0 | 0.0 | 0.00 | 0.00 | 0.00 | 84 | 1017.5 |
| 20260503052253 | 58 | 54 | 0.9 | 0.9 | 0.00 | 0.00 | 0.00 | 83 | 1017.5 |
| 20260503051748 | 58 | 61 | 0.9 | 0.9 | 0.00 | 0.00 | 0.00 | 80 | 1017.6 |
| 20260503051246 | 58 | 58 | 0.0 | 0.9 | 0.00 | 0.00 | 0.00 | 79 | 1017.5 |
| 20260503050742 | 59 | 58 | 0.0 | 0.0 | 0.00 | 0.00 | 0.00 | 80 | 1017.5 |
| 20260503050239 | 60 | 59 | 0.0 | 0.9 | 0.00 | 0.00 | 0.00 | 78 | 1017.5 |
| 20260503045736 | 61 | 51 | 0.9 | 0.9 | 0.00 | 0.00 | 0.00 | 74 | 1017.2 |
| 20260503045234 | 62 | 340 | 0.0 | 0.0 | 0.00 | 0.00 | 0.00 | 70 | 1017.2 |
| 20260503044730 | 60 | 20 | 0.0 | 0.0 | 0.00 | 0.00 | 0.00 | 73 | 1017.2 |
| 20260503044228 | 60 | 76 | 0.9 | 0.9 | 0.00 | 0.00 | 0.00 | 75 | 1017.4 |
| 20260503043724 | 60 | 76 | 0.0 | 0.0 | 0.00 | 0.00 | 0.00 | 76 | 1017.2 |
| 20260503043222 | 61 | 76 | 0.9 | 0.9 | 0.00 | 0.00 | 0.00 | 76 | 1017.1 |
| 20260503042717 | 62 | 29 | 0.0 | 0.9 | 0.00 | 0.00 | 0.00 | 70 | 1017.0 |
| 20260503042214 | 60 | 347 | 0.9 | 0.9 | 0.00 | 0.00 | 0.00 | 72 | 1016.9 |
| 20260503041710 | 60 | 34 | 0.0 | 0.0 | 0.00 | 0.00 | 0.00 | 78 | 1016.9 |
| 20260503041208 | 60 | 50 | 0.0 | 0.9 | 0.00 | 0.00 | 0.00 | 80 | 1016.8 |
| 20260503040705 | 61 | 76 | 0.0 | 0.0 | 0.00 | 0.00 | 0.00 | 79 | 1016.9 |
| 20260503040203 | 62 | 44 | 0.0 | 0.0 | 0.00 | 0.00 | 0.00 | 75 | 1016.7 |
| 20260503035659 | 62 | 61 | 0.9 | 0.9 | 0.00 | 0.00 | 0.00 | 76 | 1016.7 |
| 20260503035157 | 63 | 101 | 0.9 | 0.9 | 0.00 | 0.00 | 0.00 | 75 | 1016.6 |
| 20260503034654 | 65 | 126 | 1.7 | 1.7 | 0.00 | 0.00 | 0.00 | 64 | 1016.4 |
| 20260503034151 | 65 | 334 | 1.7 | 1.7 | 0.00 | 0.00 | 0.00 | 62 | 1016.5 |
| 20260503033649 | 65 | 338 | 0.9 | 0.9 | 0.00 | 0.00 | 0.00 | 65 | 1016.5 |
| 20260503033146 | 65 | 342 | 0.9 | 0.9 | 0.00 | 0.00 | 0.00 | 66 | 1016.4 |
| 20260503032644 | 65 | 353 | 0.0 | 0.9 | 0.00 | 0.00 | 0.00 | 68 | 1016.4 |
| 20260503032143 | 65 | 5 | 0.9 | 0.9 | 0.00 | 0.00 | 0.00 | 69 | 1016.1 |
| 20260503031639 | 66 | 22 | 0.0 | 0.0 | 0.00 | 0.00 | 0.00 | 66 | 1016.2 |
| 20260503031137 | 67 | 52 | 0.0 | 0.0 | 0.00 | 0.00 | 0.00 | 63 | 1016.0 |
| 20260503030633 | 68 | 21 | 0.0 | 0.0 | 0.00 | 0.00 | 0.00 | 62 | 1016.1 |
| 20260503030130 | 68 | 326 | 1.7 | 1.7 | 0.00 | 0.00 | 0.00 | 63 | 1016.2 |
| 20260503025626 | 68 | 349 | 0.9 | 0.9 | 0.00 | 0.00 | 0.00 | 62 | 1016.1 |
| 20260503025125 | 69 | 332 | 4.3 | 5.2 | 0.00 | 0.00 | 0.00 | 61 | 1016.0 |
| 20260503024621 | 69 | 7 | 1.7 | 1.7 | 0.00 | 0.00 | 0.00 | 61 | 1016.0 |
| 20260503024118 | 69 | 344 | 0.0 | 0.0 | 0.00 | 0.00 | 0.00 | 61 | 1016.0 |
| 20260503023615 | 69 | 339 | 4.3 | 5.2 | 0.00 | 0.00 | 0.00 | 61 | 1016.1 |
| 20260503023112 | 69 | 61 | 0.0 | 0.0 | 0.00 | 0.00 | 0.00 | 62 | 1015.9 |
| 20260503022607 | 69 | 49 | 0.9 | 1.7 | 0.00 | 0.00 | 0.00 | 63 | 1016.1 |
| 20260503022102 | 69 | 12 | 3.5 | 4.3 | 0.00 | 0.00 | 0.00 | 62 | 1016.1 |
| 20260503021600 | 70 | 2 | 1.7 | 1.7 | 0.00 | 0.00 | 0.00 | 61 | 1015.8 |
| 20260503021056 | 70 | 99 | 0.0 | 0.9 | 0.00 | 0.00 | 0.00 | 63 | 1015.7 |
| 20260503020553 | 70 | 334 | 1.7 | 2.6 | 0.00 | 0.00 | 0.00 | 61 | 1016.0 |
| 20260503020050 | 70 | 327 | 5.2 | 7.8 | 0.00 | 0.00 | 0.00 | 61 | 1015.9 |
| 20260503015547 | 71 | 334 | 1.7 | 1.7 | 0.00 | 0.00 | 0.00 | 61 | 1015.9 |
| 20260503015045 | 71 | 342 | 4.3 | 6.1 | 0.00 | 0.00 | 0.00 | 61 | 1016.1 |
| 20260503014540 | 71 | 278 | 1.7 | 2.6 | 0.00 | 0.00 | 0.00 | 61 | 1015.9 |
| 20260503014038 | 71 | 354 | 4.3 | 5.2 | 0.00 | 0.00 | 0.00 | 61 | 1015.7 |
| 20260503013535 | 71 | 34 | 6.1 | 7.8 | 0.00 | 0.00 | 0.00 | 61 | 1015.9 |
| 20260503013033 | 71 | 23 | 4.3 | 6.1 | 0.00 | 0.00 | 0.00 | 62 | 1015.8 |
| 20260503012530 | 71 | 297 | 0.9 | 1.7 | 0.00 | 0.00 | 0.00 | 62 | 1015.9 |
| 20260503012026 | 72 | 259 | 3.5 | 4.3 | 0.00 | 0.00 | 0.00 | 62 | 1016.0 |
| 20260503011523 | 72 | 19 | 1.7 | 1.7 | 0.00 | 0.00 | 0.00 | 63 | 1015.9 |
| 20260503011021 | 72 | 21 | 4.3 | 5.2 | 0.00 | 0.00 | 0.00 | 62 | 1015.8 |
| 20260503010516 | 72 | 57 | 1.7 | 1.7 | 0.00 | 0.00 | 0.00 | 62 | 1015.9 |
| 20260503010015 | 73 | 330 | 7.0 | 7.8 | 0.00 | 0.00 | 0.00 | 61 | 1015.9 |
| 20260503005511 | 73 | 31 | 0.0 | 0.9 | 0.00 | 0.00 | 0.00 | 62 | 1015.8 |
| 20260503005009 | 72 | 324 | 4.3 | 5.2 | 0.00 | 0.00 | 0.00 | 63 | 1016.2 |
| 20260503004504 | 72 | 356 | 7.0 | 8.7 | 0.00 | 0.00 | 0.00 | 63 | 1015.9 |
| 20260503004003 | 72 | 302 | 4.3 | 6.1 | 0.00 | 0.00 | 0.00 | 63 | 1016.0 |
| 20260503003459 | 73 | 326 | 4.3 | 5.2 | 0.00 | 0.00 | 0.00 | 62 | 1016.2 |
| 20260503002956 | 73 | 333 | 2.6 | 2.6 | 0.00 | 0.00 | 0.00 | 62 | 1016.2 |
| 20260503002453 | 73 | 288 | 4.3 | 5.2 | 0.00 | 0.00 | 0.00 | 63 | 1015.9 |
| 20260503001949 | 72 | 26 | 2.6 | 4.3 | 0.00 | 0.00 | 0.00 | 64 | 1016.1 |
| 20260503001446 | 72 | 37 | 0.9 | 1.7 | 0.00 | 0.00 | 0.00 | 65 | 1016.1 |
| 20260503000944 | 72 | 303 | 4.3 | 6.1 | 0.00 | 0.00 | 0.00 | 64 | 1015.9 |
| 20260503000441 | 73 | 317 | 6.1 | 7.8 | 0.00 | 0.00 | 0.00 | 63 | 1016.0 |
| 20260502235938 | 72 | 325 | 4.3 | 7.0 | 0.00 | 0.00 | 0.00 | 64 | 1016.2 |
| 20260502235435 | 72 | 272 | 8.7 | 11.3 | 0.00 | 0.00 | 0.00 | 63 | 1016.2 |
| 20260502234932 | 72 | 282 | 4.3 | 5.2 | 0.00 | 0.00 | 0.00 | 63 | 1016.4 |
| 20260502234429 | 73 | 61 | 0.9 | 1.7 | 0.00 | 0.00 | 0.00 | 63 | 1016.4 |
| 20260502233926 | 73 | 8 | 3.5 | 4.3 | 0.00 | 0.00 | 0.00 | 62 | 1016.4 |
| 20260502233421 | 73 | 292 | 1.7 | 2.6 | 0.00 | 0.00 | 0.00 | 63 | 1016.6 |
| 20260502232918 | 73 | 14 | 4.3 | 4.3 | 0.00 | 0.00 | 0.00 | 61 | 1016.6 |
| 20260502232414 | 72 | 268 | 4.3 | 6.1 | 0.00 | 0.00 | 0.00 | 62 | 1016.4 |
| 20260502231912 | 73 | 304 | 3.5 | 4.3 | 0.00 | 0.00 | 0.00 | 62 | 1016.7 |
| 20260502231409 | 73 | 336 | 1.7 | 1.7 | 0.00 | 0.00 | 0.00 | 62 | 1016.9 |
| 20260502230907 | 72 | 268 | 2.6 | 2.6 | 0.00 | 0.00 | 0.00 | 63 | 1016.9 |
| 20260502230405 | 72 | 40 | 0.9 | 0.9 | 0.00 | 0.00 | 0.00 | 63 | 1017.0 |
| 20260502225902 | 71 | 287 | 4.3 | 6.1 | 0.00 | 0.00 | 0.00 | 65 | 1017.0 |
| 20260502225358 | 71 | 298 | 2.6 | 4.3 | 0.00 | 0.00 | 0.00 | 65 | 1017.0 |
| 20260502224855 | 71 | 0 | 6.1 | 7.8 | 0.00 | 0.00 | 0.00 | 64 | 1017.1 |
| 20260502224351 | 71 | 317 | 4.3 | 5.2 | 0.00 | 0.00 | 0.00 | 64 | 1017.4 |
| 20260502223849 | 71 | 46 | 0.0 | 0.9 | 0.00 | 0.00 | 0.00 | 64 | 1017.4 |
| 20260502223347 | 70 | 341 | 7.8 | 11.3 | 0.00 | 0.00 | 0.00 | 66 | 1017.4 |
| 20260502222844 | 71 | 347 | 4.3 | 5.2 | 0.00 | 0.00 | 0.00 | 66 | 1017.5 |
| 20260502222342 | 71 | 295 | 5.2 | 7.0 | 0.00 | 0.00 | 0.00 | 66 | 1017.6 |
| 20260502221837 | 71 | 321 | 4.3 | 6.1 | 0.00 | 0.00 | 0.00 | 66 | 1017.6 |
| 20260502221334 | 70 | 357 | 4.3 | 7.8 | 0.00 | 0.00 | 0.00 | 67 | 1017.7 |
| 20260502220831 | 71 | 265 | 4.3 | 6.1 | 0.00 | 0.00 | 0.00 | 67 | 1017.7 |
| 20260502220327 | 70 | 267 | 3.5 | 4.3 | 0.00 | 0.00 | 0.00 | 68 | 1017.7 |
| 20260502215823 | 70 | 281 | 4.3 | 7.0 | 0.00 | 0.00 | 0.00 | 69 | 1017.7 |
| 20260502215321 | 70 | 244 | 2.6 | 5.2 | 0.00 | 0.00 | 0.00 | 69 | 1017.7 |
| 20260502214818 | 70 | 298 | 2.6 | 4.3 | 0.00 | 0.00 | 0.00 | 69 | 1017.9 |
| 20260502214315 | 69 | 305 | 6.1 | 7.0 | 0.00 | 0.00 | 0.00 | 69 | 1017.9 |
| 20260502213812 | 70 | 23 | 5.2 | 6.1 | 0.00 | 0.00 | 0.00 | 68 | 1017.9 |
| 20260502213309 | 69 | 309 | 4.3 | 5.2 | 0.00 | 0.00 | 0.00 | 70 | 1017.8 |
| 20260502212808 | 69 | 276 | 5.2 | 7.0 | 0.00 | 0.00 | 0.00 | 72 | 1018.1 |
| 20260502212306 | 69 | 6 | 2.6 | 4.3 | 0.00 | 0.00 | 0.00 | 71 | 1018.2 |
| 20260502211802 | 68 | 153 | 0.9 | 1.7 | 0.00 | 0.00 | 0.00 | 72 | 1018.2 |
| 20260502211258 | 67 | 345 | 4.3 | 6.1 | 0.00 | 0.00 | 0.00 | 72 | 1018.0 |
| 20260502210755 | 68 | 21 | 5.2 | 8.7 | 0.00 | 0.00 | 0.00 | 71 | 1018.3 |
| 20260502210253 | 69 | 272 | 5.2 | 8.7 | 0.00 | 0.00 | 0.00 | 68 | 1018.3 |
| 20260502205750 | 69 | 325 | 2.6 | 2.6 | 0.00 | 0.00 | 0.00 | 68 | 1018.1 |
| 20260502205246 | 68 | 350 | 3.5 | 4.3 | 0.00 | 0.00 | 0.00 | 70 | 1018.4 |
| 20260502204743 | 67 | 347 | 1.7 | 2.6 | 0.00 | 0.00 | 0.00 | 70 | 1018.4 |
| 20260502204240 | 66 | 354 | 3.5 | 6.1 | 0.00 | 0.00 | 0.00 | 70 | 1018.5 |
| 20260502203738 | 66 | 289 | 4.3 | 5.2 | 0.00 | 0.00 | 0.00 | 70 | 1018.5 |
| 20260502203236 | 67 | 22 | 6.1 | 7.8 | 0.00 | 0.00 | 0.00 | 70 | 1018.6 |
| 20260502202729 | 67 | 19 | 6.1 | 7.0 | 0.00 | 0.00 | 0.00 | 71 | 1018.4 |
| 20260502202228 | 67 | 19 | 4.3 | 4.3 | 0.00 | 0.00 | 0.00 | 70 | 1018.6 |
| 20260502201725 | 67 | 309 | 2.6 | 4.3 | 0.00 | 0.00 | 0.00 | 70 | 1018.7 |
| 20260502201222 | 66 | 2 | 5.2 | 6.1 | 0.00 | 0.00 | 0.00 | 73 | 1019.0 |
| 20260502200718 | 66 | 339 | 6.1 | 6.1 | 0.00 | 0.00 | 0.00 | 74 | 1018.8 |
| 20260502200214 | 66 | 43 | 4.3 | 5.2 | 0.00 | 0.00 | 0.00 | 71 | 1019.0 |
| 20260502195713 | 66 | 253 | 2.6 | 2.6 | 0.00 | 0.00 | 0.00 | 73 | 1018.9 |
| 20260502195209 | 66 | 7 | 3.5 | 4.3 | 0.00 | 0.00 | 0.00 | 71 | 1018.9 |